Home   Weather   Haywards Heath   Past weeks

Flag for United Kingdom Past Weather in Haywards Heath, England, United Kingdom — Yesterday and Last 2 Weeks

55 °F

Mostly cloudy.

Feels Like: 55 °F
Forecast: 46 / 61 °F
Wind: 2 mph from North

Location: London / Gatwick Airport

Current Time: Oct 25, 2016 at 1:10:20 PM

Latest Report: Oct 25, 2016 at 12:20 PM

Visibility: 6 mi

Pressure: 30.21 "Hg

Humidity: 82%

Dew Point: 50 °F

Location of Haywards HeathLocation

Past Weather in Haywards Heath — Graph


Haywards Heath Temperature Yesterday

Maximum temperature yesterday: 55 °F (at 1:50 PM)
Minimum temperature yesterday: 48 °F (at 12:20 AM)
Average temperature yesterday: 51 °F

High & Low Weather Summary for the Past Weeks

High61 °F (Oct 15, 12:50 PM)100% (Oct 11, 3:50 AM)30.30 "Hg (Oct 11, 3:50 AM)
Low36 °F (Oct 23, 5:20 AM)55% (Oct 10, 1:20 PM)29.65 "Hg (Oct 14, 2:20 PM)
Average51 °F83%30.00 "Hg
* Reported Oct 10 11:20 AM — Oct 25 11:50 AM, Haywards Heath, Weather by CustomWeather, © 2016

Note: Actual official high and low records may vary slightly from our data, if they occured in-between our weather recording intervals... More about our weather records


Haywards Heath Weather History for the Previous 24 Hours

Scroll right to see more
Time TempWeatherWind HumidityBarometerVisibility
11:50 AM
Tue, Oct 25
55 °FPartly sunny.2 mph82%30.21 "HgN/A
11:20 AM54 °FScattered clouds.2 mph82%30.21 "Hg6 mi
10:50 AM54 °FPartly sunny.3 mph82%30.18 "Hg5 mi
10:20 AM52 °FBroken clouds.6 mph88%30.18 "Hg6 mi
9:50 AM52 °FScattered clouds.5 mph88%30.18 "Hg6 mi
9:20 AM52 °FScattered clouds.5 mph88%30.18 "HgN/A
8:50 AM50 °FPartly sunny.3 mph88%30.15 "Hg5 mi
8:20 AM50 °FPartly sunny.5 mph88%30.15 "Hg6 mi
7:50 AM50 °FPartly sunny.2 mph88%30.15 "Hg5 mi
7:20 AM48 °FPassing clouds.3 mph94%30.12 "Hg5 mi
6:50 AM50 °FPassing clouds.2 mph88%30.12 "Hg6 mi
6:20 AM50 °FPassing clouds.3 mph88%30.12 "Hg6 mi
5:50 AM48 °FPassing clouds.5 mph94%30.12 "HgN/A
5:20 AM48 °FPassing clouds.5 mph94%30.09 "Hg6 mi
4:50 AM50 °FPassing clouds.2 mph88%30.09 "HgN/A
4:20 AM50 °FPassing clouds.5 mph94%30.09 "HgN/A
3:50 AM50 °FPassing clouds.No wind88%30.09 "Hg6 mi
3:20 AM50 °FPassing clouds.2 mph88%30.09 "Hg6 mi
2:50 AM48 °FPassing clouds.2 mph94%30.07 "Hg6 mi
2:20 AM50 °FPassing clouds.3 mph88%30.07 "HgN/A
1:50 AM50 °FPassing clouds.3 mph88%30.07 "HgN/A
1:20 AM50 °FPassing clouds.3 mph88%30.07 "HgN/A
12:50 AM50 °FPassing clouds.No wind88%30.07 "HgN/A
12:20 AM50 °FClear.5 mph88%30.04 "Hg10 mi
11:50 PM
Mon, Oct 24
50 °FPassing clouds.3 mph88%30.04 "HgN/A
11:20 PM52 °FPassing clouds.3 mph82%30.04 "HgN/A
10:50 PM52 °FPassing clouds.3 mph82%30.04 "HgN/A
10:20 PM52 °FPassing clouds.5 mph82%30.01 "HgN/A
9:50 PM52 °FPassing clouds.3 mph82%30.01 "HgN/A
9:20 PM52 °FPassing clouds.5 mph82%30.01 "HgN/A
8:50 PM52 °FPassing clouds.5 mph82%29.98 "HgN/A
8:20 PM52 °FPassing clouds.5 mph82%29.98 "HgN/A
7:50 PM52 °FPassing clouds.5 mph82%29.98 "HgN/A
7:20 PM52 °FClear.6 mph82%29.98 "Hg10 mi
6:50 PM52 °FClear.6 mph82%29.95 "Hg10 mi
6:20 PM54 °FClear.5 mph77%29.95 "Hg10 mi
5:50 PM54 °FPassing clouds.5 mph77%29.95 "HgN/A
5:20 PM54 °FScattered clouds.8 mph77%29.92 "HgN/A
4:50 PM54 °FPassing clouds.8 mph77%29.92 "HgN/A
4:20 PM55 °FPassing clouds.9 mph72%29.92 "HgN/A
3:50 PM55 °FPassing clouds.12 mph72%29.89 "HgN/A
3:20 PM55 °FPassing clouds.10 mph72%29.89 "HgN/A
2:50 PM55 °FPartly sunny.9 mph72%29.89 "HgN/A
2:20 PM55 °FPartly sunny.8 mph77%29.89 "HgN/A
1:50 PM55 °FPassing clouds.6 mph77%29.89 "HgN/A
1:20 PM54 °FPassing clouds.9 mph77%29.89 "HgN/A
Weather by CustomWeather, © 2016

See weather overviewHow to use our weather pages